EW1134 Weather Reports


Display with metric or nautical units.
time (UTC)temp
F
wind
direction
speed
MPH
gust
MPH
rain 1hr
in
rain 24hr
in
rain mn
in
humidity
%
barometer
mb
20260906005004 68 248 0.0 3.0 0.00 0.00 0.00 45 1016.2
20260906004505 68 256 0.0 3.0 0.00 0.00 0.00 44 1016.2
20260906004004 68 253 0.0 4.0 0.00 0.00 0.00 44 1016.1
20260906003504 68 242 1.0 4.0 0.00 0.00 0.00 44 1016.2
20260906002504 68 236 0.0 3.0 0.00 0.00 0.00 44 1015.9
20260906002004 69 225 0.0 2.0 0.00 0.00 0.00 44 1016.3
20260906001504 69 256 0.0 3.0 0.00 0.00 0.00 43 1016.3
20260906001004 69 227 1.0 4.0 0.00 0.00 0.00 43 1016.3
20260906000005 69 249 0.0 4.0 0.00 0.00 0.00 43 1016.3
20260905235504 69 223 0.0 3.0 0.00 0.00 0.00 43 1016.2
20260905235004 69 246 1.0 4.0 0.00 0.00 0.00 43 1016.4
20260905234504 69 244 1.0 4.0 0.00 0.00 0.00 43 1016.6
20260905234004 69 240 1.0 4.0 0.00 0.00 0.00 43 1016.3
20260905233504 69 259 0.0 4.0 0.00 0.00 0.00 43 1016.3
20260905233005 69 249 0.0 1.0 0.00 0.00 0.00 44 1016.5
20260905232504 69 184 0.0 1.0 0.00 0.00 0.00 44 1016.4
20260905232004 69 181 0.0 1.0 0.00 0.00 0.00 43 1016.4
20260905231504 69 191 0.0 4.0 0.00 0.00 0.00 43 1016.6
20260905231003 69 210 1.0 4.0 0.00 0.00 0.00 43 1016.6
20260905230503 69 261 0.0 3.0 0.00 0.00 0.00 43 1016.6
20260905230004 69 271 0.0 2.0 0.00 0.00 0.00 42 1016.5
20260905225003 69 288 0.0 2.0 0.00 0.00 0.00 42 1016.6
20260905224504 69 314 0.0 3.0 0.00 0.00 0.00 42 1016.8
20260905224003 70 314 0.0 3.0 0.00 0.00 0.00 42 1016.6
20260905223004 70 0 0.0 0.0 0.00 0.00 0.00 42 1016.6
20260905222503 70 314 0.0 1.0 0.00 0.00 0.00 41 1016.7
20260905222004 70 261 0.0 4.0 0.00 0.00 0.00 41 1016.7
20260905221504 70 241 0.0 4.0 0.00 0.00 0.00 41 1016.5
20260905220504 71 147 0.0 3.0 0.00 0.00 0.00 41 1016.6
20260905215004 71 6 0.0 2.0 0.00 0.00 0.00 40 1016.6
20260905214504 71 97 0.0 3.0 0.00 0.00 0.00 40 1016.9
20260905214003 72 96 1.0 3.0 0.00 0.00 0.00 40 1016.8
20260905213004 72 225 1.0 4.0 0.00 0.00 0.00 39 1016.9
20260905212504 72 225 1.0 4.0 0.00 0.00 0.00 39 1016.9
20260905212004 72 241 0.0 3.0 0.00 0.00 0.00 39 1017.0
20260905210503 72 238 0.0 3.0 0.00 0.00 0.00 38 1016.8
20260905210005 73 246 0.0 4.0 0.00 0.00 0.00 38 1016.9
20260905205504 73 246 1.0 4.0 0.00 0.00 0.00 38 1016.8
20260905204004 74 222 0.0 3.0 0.00 0.00 0.00 37 1016.9
20260905203504 74 215 1.0 4.0 0.00 0.00 0.00 37 1016.8
20260905203004 74 261 2.0 5.0 0.00 0.00 0.00 37 1016.8
20260905202504 74 285 2.0 5.0 0.00 0.00 0.00 37 1017.0
20260905201505 74 263 0.0 4.0 0.00 0.00 0.00 37 1016.8
20260905201004 74 270 0.0 4.0 0.00 0.00 0.00 37 1016.9
20260905200504 74 260 1.0 4.0 0.00 0.00 0.00 37 1016.9
20260905200005 74 261 1.0 4.0 0.00 0.00 0.00 36 1016.7
20260905195505 75 263 1.0 4.0 0.00 0.00 0.00 36 1016.8
20260905195004 75 251 1.0 5.0 0.00 0.00 0.00 36 1016.9
20260905194504 75 231 1.0 5.0 0.00 0.00 0.00 36 1016.9
20260905194004 75 235 1.0 4.0 0.00 0.00 0.00 36 1016.8
20260905193504 75 260 1.0 4.0 0.00 0.00 0.00 35 1016.8
20260905193004 76 245 0.0 3.0 0.00 0.00 0.00 35 1016.9
20260905192504 76 224 1.0 4.0 0.00 0.00 0.00 34 1016.9
20260905192004 76 231 1.0 4.0 0.00 0.00 0.00 34 1016.9
20260905191504 76 255 1.0 4.0 0.00 0.00 0.00 34 1016.9
20260905191004 76 252 1.0 5.0 0.00 0.00 0.00 34 1017.0
20260905190503 76 220 1.0 5.0 0.00 0.00 0.00 34 1016.9
20260905185503 77 240 2.0 6.0 0.00 0.00 0.00 34 1016.9
20260905185003 77 237 1.0 6.0 0.00 0.00 0.00 34 1016.8
20260905183504 78 218 2.0 7.0 0.00 0.00 0.00 33 1016.6
20260905183005 78 219 1.0 6.0 0.00 0.00 0.00 33 1016.7
20260905182504 78 224 2.0 6.0 0.00 0.00 0.00 32 1016.4
20260905182004 79 233 1.0 4.0 0.00 0.00 0.00 32 1016.7
20260905181504 79 269 0.0 4.0 0.00 0.00 0.00 32 1016.4
20260905181003 79 314 0.0 1.0 0.00 0.00 0.00 32 1016.4
20260905180004 79 314 0.0 2.0 0.00 0.00 0.00 31 1016.5
20260905175503 80 314 0.0 1.0 0.00 0.00 0.00 31 1016.4
20260905175004 80 0 0.0 0.0 0.00 0.00 0.00 31 1016.4
20260905174505 80 0 0.0 0.0 0.00 0.00 0.00 31 1016.3
20260905174004 81 326 0.0 2.0 0.00 0.00 0.00 30 1016.3
20260905173504 81 320 0.0 2.0 0.00 0.00 0.00 30 1016.2
20260905172504 82 359 0.0 3.0 0.00 0.00 0.00 29 1016.1
20260905172004 82 31 0.0 3.0 0.00 0.00 0.00 29 1016.1
20260905171504 82 30 0.0 3.0 0.00 0.00 0.00 29 1016.0
20260905171004 83 34 0.0 3.0 0.00 0.00 0.00 29 1016.0
20260905170503 83 38 1.0 4.0 0.00 0.00 0.00 29 1015.9
20260905170004 83 40 1.0 4.0 0.00 0.00 0.00 29 1016.0
20260905165504 84 20 1.0 4.0 0.00 0.00 0.00 28 1016.1
20260905165003 84 356 1.0 4.0 0.00 0.00 0.00 28 1016.0
20260905164504 85 354 1.0 4.0 0.00 0.00 0.00 28 1016.0
20260905164003 85 345 1.0 4.0 0.00 0.00 0.00 28 1016.1
20260905163503 85 352 2.0 6.0 0.00 0.00 0.00 28 1016.3
20260905163004 86 351 2.0 7.0 0.00 0.00 0.00 27 1015.9
20260905162504 86 345 3.0 7.0 0.00 0.00 0.00 27 1016.1
20260905161504 86 336 3.0 7.0 0.00 0.00 0.00 26 1016.2
20260905161003 87 345 4.0 8.0 0.00 0.00 0.00 26 1016.2
20260905160004 87 359 4.0 11.0 0.00 0.00 0.00 25 1016.3
20260905155504 87 354 5.0 10.0 0.00 0.00 0.00 24 1016.4
20260905155004 88 341 5.0 12.0 0.00 0.00 0.00 24 1016.2
20260905154504 88 348 5.0 12.0 0.00 0.00 0.00 24 1016.3
20260905154004 88 353 5.0 12.0 0.00 0.00 0.00 23 1016.3
20260905153503 88 349 5.0 11.0 0.00 0.00 0.00 23 1016.3
20260905153004 88 347 6.0 13.0 0.00 0.00 0.00 22 1016.3
20260905152504 88 325 7.0 13.0 0.00 0.00 0.00 22 1016.4
20260905151504 89 323 5.0 13.0 0.00 0.00 0.00 21 1016.1
20260905150503 88 326 6.0 12.0 0.00 0.00 0.00 22 1016.1
20260905150004 88 323 7.0 15.0 0.00 0.00 0.00 22 1016.3
20260905145504 88 341 7.0 15.0 0.00 0.00 0.00 22 1016.1
20260905145004 88 331 7.0 13.0 0.00 0.00 0.00 22 1016.3
20260905144504 89 310 7.0 13.0 0.00 0.00 0.00 22 1016.2
20260905144003 89 323 6.0 13.0 0.00 0.00 0.00 22 1016.4
20260905143503 89 348 6.0 16.0 0.00 0.00 0.00 22 1016.2
20260905143004 89 343 7.0 16.0 0.00 0.00 0.00 22 1016.3
20260905142504 89 333 6.0 15.0 0.00 0.00 0.00 23 1016.1
20260905142004 89 347 6.0 13.0 0.00 0.00 0.00 22 1016.3
20260905141504 89 356 7.0 13.0 0.00 0.00 0.00 23 1016.3
20260905141003 89 358 7.0 13.0 0.00 0.00 0.00 24 1016.2
20260905140503 89 329 6.0 14.0 0.00 0.00 0.00 24 1016.2
20260905140005 88 306 5.0 14.0 0.00 0.00 0.00 24 1016.3
20260905135504 88 343 5.0 19.0 0.00 0.00 0.00 25 1016.3
20260905135003 88 341 6.0 19.0 0.00 0.00 0.00 25 1016.3
20260905134504 88 312 6.0 14.0 0.00 0.00 0.00 25 1016.4
20260905134004 88 315 7.0 14.0 0.00 0.00 0.00 25 1016.3
20260905133503 88 343 6.0 14.0 0.00 0.00 0.00 25 1016.3
20260905133004 88 11 6.0 14.0 0.00 0.00 0.00 25 1016.3
20260905132504 88 9 6.0 15.0 0.00 0.00 0.00 26 1016.3
20260905132003 88 2 7.0 16.0 0.00 0.00 0.00 25 1016.4
20260905131504 88 8 8.0 17.0 0.00 0.00 0.00 25 1016.4
20260905130503 88 338 6.0 15.0 0.00 0.00 0.00 26 1016.2
20260905125503 88 342 4.0 13.0 0.00 0.00 0.00 26 1016.4
20260905125003 88 10 5.0 13.0 0.00 0.00 0.00 27 1016.6
20260905124504 88 30 6.0 17.0 0.00 0.00 0.00 27 1016.7
20260905124003 88 15 6.0 17.0 0.00 0.00 0.00 25 1016.7
20260905123504 88 4 6.0 16.0 0.00 0.00 0.00 26 1016.6
20260905122503 88 328 7.0 22.0 0.00 0.00 0.00 25 1016.8
20260905122004 89 312 7.0 22.0 0.00 0.00 0.00 25 1016.9
20260905121504 89 321 8.0 22.0 0.00 0.00 0.00 24 1017.0
20260905121004 89 326 9.0 16.0 0.00 0.00 0.00 24 1016.8
20260905120503 89 318 10.0 20.0 0.00 0.00 0.00 23 1017.1
20260905120003 90 326 9.0 20.0 0.00 0.00 0.00 22 1016.9
20260905115503 90 331 7.0 15.0 0.00 0.00 0.00 22 1017.2
20260905115004 89 341 8.0 18.0 0.00 0.00 0.00 24 1016.9
20260905114504 89 346 9.0 18.0 0.00 0.00 0.00 23 1017.0
20260905114003 89 341 9.0 18.0 0.00 0.00 0.00 23 1017.1
20260905113503 89 335 9.0 18.0 0.00 0.00 0.00 23 1016.9
20260905112003 89 315 9.0 20.0 0.00 0.00 0.00 26 1016.9
20260905111504 89 301 10.0 20.0 0.00 0.00 0.00 25 1017.0
20260905110504 89 334 8.0 18.0 0.00 0.00 0.00 25 1017.1
20260905105504 89 353 10.0 19.0 0.00 0.00 0.00 26 1016.7
20260905105003 89 15 8.0 18.0 0.00 0.00 0.00 26 1017.1
20260905104505 89 20 8.0 21.0 0.00 0.00 0.00 26 1017.2
20260905104003 89 356 9.0 21.0 0.00 0.00 0.00 26 1017.1
20260905103504 89 334 8.0 18.0 0.00 0.00 0.00 27 1017.1
20260905103004 89 338 7.0 16.0 0.00 0.00 0.00 28 1017.0
20260905102504 88 340 8.0 16.0 0.00 0.00 0.00 28 1017.0
20260905102004 88 334 10.0 18.0 0.00 0.00 0.00 29 1017.2
20260905101503 88 339 10.0 21.0 0.00 0.00 0.00 28 1016.9
20260905101003 88 339 10.0 21.0 0.00 0.00 0.00 28 1017.2
20260905100503 88 341 11.0 20.0 0.00 0.00 0.00 28 1017.2
20260905095503 88 349 10.0 22.0 0.00 0.00 0.00 28 1017.2
20260905095004 88 339 9.0 18.0 0.00 0.00 0.00 30 1017.2
20260905094504 88 339 8.0 18.0 0.00 0.00 0.00 30 1017.2
20260905094004 88 7 8.0 19.0 0.00 0.00 0.00 30 1017.3
20260905093504 87 341 8.0 19.0 0.00 0.00 0.00 31 1017.4
20260905093004 87 332 8.0 16.0 0.00 0.00 0.00 31 1017.3
20260905092503 87 321 8.0 16.0 0.00 0.00 0.00 31 1017.4
20260905092004 87 324 7.0 16.0 0.00 0.00 0.00 31 1017.5
20260905091505 87 333 7.0 16.0 0.00 0.00 0.00 31 1017.2
20260905091004 87 336 7.0 16.0 0.00 0.00 0.00 31 1017.4
20260905090503 87 333 7.0 14.0 0.00 0.00 0.00 31 1017.6
20260905090004 87 311 7.0 16.0 0.00 0.00 0.00 32 1017.6
20260905085504 87 320 7.0 16.0 0.00 0.00 0.00 32 1017.6
20260905085004 87 351 6.0 13.0 0.00 0.00 0.00 33 1017.3
20260905084505 87 350 6.0 14.0 0.00 0.00 0.00 35 1017.4
20260905084004 86 336 6.0 14.0 0.00 0.00 0.00 35 1017.3
20260905083504 86 343 6.0 13.0 0.00 0.00 0.00 34 1017.6
20260905083004 86 333 7.0 14.0 0.00 0.00 0.00 35 1017.6
20260905082503 86 326 7.0 14.0 0.00 0.00 0.00 35 1017.5
20260905081003 86 316 6.0 16.0 0.00 0.00 0.00 33 1017.7
20260905080504 86 333 7.0 16.0 0.00 0.00 0.00 32 1017.7
20260905080006 85 356 6.0 15.0 0.00 0.00 0.00 32 1017.5
20260905075505 85 343 7.0 15.0 0.00 0.00 0.00 33 1017.6
20260905075005 85 339 7.0 15.0 0.00 0.00 0.00 33 1017.6
20260905074004 85 11 7.0 16.0 0.00 0.00 0.00 35 1017.5
20260905073006 84 343 6.0 16.0 0.00 0.00 0.00 35 1017.4
20260905072505 84 327 8.0 14.0 0.00 0.00 0.00 37 1017.4
20260905072005 84 351 8.0 14.0 0.00 0.00 0.00 36 1017.6
20260905071505 84 14 6.0 13.0 0.00 0.00 0.00 37 1017.7
20260905071005 83 1 6.0 13.0 0.00 0.00 0.00 36 1017.4
20260905070504 83 5 6.0 13.0 0.00 0.00 0.00 38 1017.7
20260905070005 83 8 6.0 13.0 0.00 0.00 0.00 37 1017.5
20260905064505 82 31 4.0 13.0 0.00 0.00 0.00 40 1017.4
20260905063504 81 349 4.0 11.0 0.00 0.00 0.00 42 1017.5
20260905063005 81 2 4.0 11.0 0.00 0.00 0.00 42 1017.5
20260905062004 80 335 4.0 9.0 0.00 0.00 0.00 43 1017.3
20260905061505 80 345 3.0 8.0 0.00 0.00 0.00 45 1017.6
20260905061004 80 30 2.0 7.0 0.00 0.00 0.00 46 1017.3
20260905060005 79 52 4.0 10.0 0.00 0.00 0.00 47 1017.4
20260905055505 79 61 3.0 8.0 0.00 0.00 0.00 48 1017.5
20260905055004 78 82 2.0 4.0 0.00 0.00 0.00 50 1017.4
20260905054505 78 87 2.0 4.0 0.00 0.00 0.00 51 1017.5
20260905054005 77 92 1.0 4.0 0.00 0.00 0.00 51 1017.3
20260905053505 76 120 1.0 3.0 0.00 0.00 0.00 53 1017.3
20260905053005 75 123 1.0 4.0 0.00 0.00 0.00 53 1017.3
20260905052505 74 105 2.0 5.0 0.00 0.00 0.00 54 1017.1
20260905052005 74 102 2.0 5.0 0.00 0.00 0.00 55 1017.2
20260905051505 73 244 1.0 4.0 0.00 0.00 0.00 57 1017.2
20260905051005 72 265 0.0 4.0 0.00 0.00 0.00 58 1017.2
20260905050505 71 314 0.0 2.0 0.00 0.00 0.00 59 1017.2
20260905045504 70 90 0.0 1.0 0.00 0.00 0.00 58 1017.2
20260905045004 69 90 0.0 1.0 0.00 0.00 0.00 58 1017.2
20260905044005 68 120 0.0 4.0 0.00 0.00 0.00 59 1017.3
20260905043505 67 205 2.0 6.0 0.00 0.00 0.00 59 1017.0
20260905043005 67 220 4.0 7.0 0.00 0.00 0.00 59 1016.9
20260905042504 67 222 5.0 8.0 0.00 0.00 0.00 58 1017.0
20260905042004 68 219 5.0 8.0 0.00 0.00 0.00 57 1016.8
20260905041505 68 228 4.0 7.0 0.00 0.00 0.00 57 1016.7
20260905041005 69 266 3.0 7.0 0.00 0.00 0.00 57 1016.6
20260905040505 69 278 1.0 5.0 0.00 0.00 0.00 58 1016.5
20260905040006 69 270 1.0 6.0 0.00 0.00 0.00 59 1016.4
20260905035505 69 272 1.0 6.0 0.00 0.00 0.00 59 1016.4
20260905035005 68 274 1.0 5.0 0.00 0.00 0.00 58 1016.4
20260905034005 68 269 2.0 6.0 0.00 0.00 0.00 57 1016.2
20260905033005 68 267 2.0 5.0 0.00 0.00 0.00 57 1016.2
20260905032504 68 261 1.0 5.0 0.00 0.00 0.00 56 1016.2
20260905032004 68 243 1.0 5.0 0.00 0.00 0.00 56 1016.2
20260905031505 68 170 1.0 4.0 0.00 0.00 0.00 56 1016.4
20260905031005 68 135 0.0 4.0 0.00 0.00 0.00 56 1016.5
20260905030504 68 283 0.0 4.0 0.00 0.00 0.00 56 1016.2
20260905030005 68 264 1.0 5.0 0.00 0.00 0.00 56 1016.2
20260905025504 68 233 1.0 5.0 0.00 0.00 0.00 56 1016.2
20260905024506 68 225 4.0 8.0 0.00 0.00 0.00 56 1016.2
20260905024005 68 225 5.0 8.0 0.00 0.00 0.00 55 1016.2
20260905023005 68 225 4.0 8.0 0.00 0.00 0.00 55 1016.2
20260905022005 68 237 3.0 8.0 0.00 0.00 0.00 56 1016.3
20260905021505 68 230 2.0 6.0 0.00 0.00 0.00 56 1016.1
20260905021005 68 244 1.0 6.0 0.00 0.00 0.00 57 1016.2
20260905020504 68 251 2.0 6.0 0.00 0.00 0.00 56 1016.3
20260905015505 67 251 2.0 5.0 0.00 0.00 0.00 57 1016.4
20260905015005 67 240 2.0 5.0 0.00 0.00 0.00 57 1016.3
20260905014005 68 227 0.0 4.0 0.00 0.00 0.00 57 1016.6
20260905013005 68 179 1.0 4.0 0.00 0.00 0.00 57 1015.9
20260905012504 68 115 0.0 2.0 0.00 0.00 0.00 56 1016.1
20260905012004 68 86 0.0 2.0 0.00 0.00 0.00 56 1016.3
20260905011505 68 63 0.0 3.0 0.00 0.00 0.00 55 1016.2
20260905011005 68 20 0.0 3.0 0.00 0.00 0.00 55 1016.0
20260905010505 69 7 0.0 3.0 0.00 0.00 0.00 55 1016.1
20260905010005 69 154 0.0 2.0 0.00 0.00 0.00 54 1016.2